Time,TemperatureF,DewpointF,PressureIn,WindDirection,WindDirectionDegrees,WindSpeedMPH,WindSpeedGustMPH,Humidity,HourlyPrecipIn,Conditions,Clouds,dailyrainin,SoftwareType,DateUTC
2013-02-03 00:00:00,58.0,27.6,30.11,ESE,112,0.0,0.0,31,0.00,,---,0.00,VWS V14.01,2013-02-03 05:00:00,
2013-02-03 00:01:00,58.0,27.6,30.11,East,90,0.0,0.0,31,0.00,,---,0.00,VWS V14.01,2013-02-03 05:01:00,
2013-02-03 00:02:00,58.0,27.6,30.11,ESE,112,0.0,0.0,31,0.00,,---,0.00,VWS V14.01,2013-02-03 05:02:00,
2013-02-03 00:03:00,58.0,27.6,30.11,ESE,112,0.0,0.0,31,0.00,,---,0.00,VWS V14.01,2013-02-03 05:03:00,
2013-02-03 00:04:00,58.0,27.6,30.11,ESE,112,0.0,0.0,31,0.00,,---,0.00,VWS V14.01,2013-02-03 05:04:00,
2013-02-03 00:05:00,58.0,27.6,30.11,ESE,112,0.0,0.0,31,0.00,,---,0.00,VWS V14.01,2013-02-03 05:05:00,
2013-02-03 16:39:00,63.0,22.5,29.84,ESE,112,0.0,0.0,21,0.00,,---,0.00,VWS V14.01,2013-02-03 21:39:00,
2013-02-03 16:40:00,63.0,22.5,29.84,ESE,112,0.0,0.0,21,0.00,,---,0.00,VWS V14.01,2013-02-03 21:40:00,
2013-02-03 16:44:00,63.0,22.5,29.84,ESE,112,0.0,0.0,21,0.00,,---,0.00,VWS V14.01,2013-02-03 21:44:00,
2013-02-03 16:45:00,62.0,21.6,29.84,ESE,112,0.0,0.0,21,0.00,,---,0.00,VWS V14.01,2013-02-03 21:45:00,
2013-02-03 16:46:00,63.0,22.5,29.84,ESE,112,0.0,0.0,21,0.00,,---,0.00,VWS V14.01,2013-02-03 21:46:00,
2013-02-03 16:47:00,63.0,22.5,29.84,ESE,112,0.0,0.0,21,0.00,,---,0.00,VWS V14.01,2013-02-03 21:47:00,
2013-02-03 16:48:00,63.0,22.5,29.84,ESE,112,0.0,0.0,21,0.00,,---,0.00,VWS V14.01,2013-02-03 21:48:00,
2013-02-03 16:49:00,63.0,22.5,29.84,ESE,112,0.0,0.0,21,0.00,,---,0.00,VWS V14.01,2013-02-03 21:49:00,
2013-02-03 16:50:00,62.0,21.6,29.84,ESE,112,0.0,0.0,21,0.00,,---,0.00,VWS V14.01,2013-02-03 21:50:00,
2013-02-03 16:51:00,62.0,21.6,29.84,ESE,112,0.0,0.0,21,0.00,,---,0.00,VWS V14.01,2013-02-03 21:51:00,
2013-02-03 16:52:00,62.0,21.6,29.84,ESE,112,0.0,0.0,21,0.00,,---,0.00,VWS V14.01,2013-02-03 21:52:00,
2013-02-03 16:53:00,62.0,21.6,29.84,ESE,112,0.0,0.0,21,0.00,,---,0.00,VWS V14.01,2013-02-03 21:53:00,
2013-02-03 16:54:00,62.0,21.6,29.84,ESE,112,0.0,0.0,21,0.00,,---,0.00,VWS V14.01,2013-02-03 21:54:00,
2013-02-03 16:55:00,62.0,21.6,29.84,ESE,112,0.0,0.0,21,0.00,,---,0.00,VWS V14.01,2013-02-03 21:55:00,
2013-02-03 16:56:00,62.0,21.6,29.84,ESE,112,0.0,0.0,21,0.00,,---,0.00,VWS V14.01,2013-02-03 21:56:00,
2013-02-03 16:57:00,62.0,21.6,29.84,ESE,112,0.0,0.0,21,0.00,,---,0.00,VWS V14.01,2013-02-03 21:57:00,
2013-02-03 16:58:00,62.0,21.6,29.84,ESE,112,0.0,0.0,21,0.00,,---,0.00,VWS V14.01,2013-02-03 21:58:00,
2013-02-03 16:59:00,62.0,21.6,29.84,ESE,112,0.0,0.0,21,0.00,,---,0.00,VWS V14.01,2013-02-03 21:59:00,
2013-02-03 17:02:00,62.0,21.6,29.84,ESE,112,0.0,0.0,21,0.00,,---,0.00,VWS V14.01,2013-02-03 22:02:00,
2013-02-03 17:41:00,62.0,21.6,29.85,ESE,112,0.0,0.0,21,0.00,,---,0.00,VWS V14.01,2013-02-03 22:41:00,
2013-02-03 17:46:00,62.0,21.6,29.85,ESE,112,0.0,0.0,21,0.00,,---,0.00,VWS V14.01,2013-02-03 22:46:00,
2013-02-03 17:47:00,62.0,21.6,29.85,ESE,112,0.0,0.0,21,0.00,,---,0.00,VWS V14.01,2013-02-03 22:47:00,
2013-02-03 17:48:00,62.0,21.6,29.85,ESE,112,0.0,0.0,21,0.00,,---,0.00,VWS V14.01,2013-02-03 22:48:00,
2013-02-03 17:49:00,62.0,21.6,29.85,ESE,112,0.0,0.0,21,0.00,,---,0.00,VWS V14.01,2013-02-03 22:49:00,
2013-02-03 17:50:00,62.0,21.6,29.85,ESE,112,0.0,0.0,21,0.00,,---,0.00,VWS V14.01,2013-02-03 22:50:00,
2013-02-03 17:51:00,62.0,21.6,29.85,ESE,112,0.0,0.0,21,0.00,,---,0.00,VWS V14.01,2013-02-03 22:51:00,
2013-02-03 17:52:00,62.0,21.6,29.85,ESE,112,0.0,0.0,21,0.00,,---,0.00,VWS V14.01,2013-02-03 22:52:00,
2013-02-03 17:53:00,62.0,21.6,29.85,ESE,112,0.0,0.0,21,0.00,,---,0.00,VWS V14.01,2013-02-03 22:53:00,
2013-02-03 17:54:00,62.0,21.6,29.85,ESE,112,0.0,0.0,21,0.00,,---,0.00,VWS V14.01,2013-02-03 22:54:00,
2013-02-03 17:55:00,62.0,21.6,29.85,ESE,112,0.0,0.0,21,0.00,,---,0.00,VWS V14.01,2013-02-03 22:55:00,
2013-02-03 17:56:00,62.0,21.6,29.85,ESE,112,0.0,0.0,21,0.00,,---,0.00,VWS V14.01,2013-02-03 22:56:00,
2013-02-03 17:57:00,62.0,21.6,29.85,ESE,112,0.0,0.0,21,0.00,,---,0.00,VWS V14.01,2013-02-03 22:57:00,
2013-02-03 17:58:00,62.0,21.6,29.85,ESE,112,0.0,0.0,21,0.00,,---,0.00,VWS V14.01,2013-02-03 22:58:00,
2013-02-03 17:59:00,62.0,21.6,29.85,ESE,112,0.0,0.0,21,0.00,,---,0.00,VWS V14.01,2013-02-03 22:59:00,
2013-02-03 18:00:00,62.0,21.6,29.85,ESE,112,0.0,0.0,21,0.00,,---,0.00,VWS V14.01,2013-02-03 23:00:00,
2013-02-03 18:01:00,62.0,21.6,29.85,ESE,112,0.0,0.0,21,0.00,,---,0.00,VWS V14.01,2013-02-03 23:01:00,
2013-02-03 18:02:00,62.0,21.6,29.85,ESE,112,0.0,0.0,21,0.00,,---,0.00,VWS V14.01,2013-02-03 23:02:00,
2013-02-03 18:03:00,62.0,21.6,29.85,ESE,112,0.0,0.0,21,0.00,,---,0.00,VWS V14.01,2013-02-03 23:03:00,
2013-02-03 18:04:00,62.0,21.6,29.85,ESE,112,0.0,0.0,21,0.00,,---,0.00,VWS V14.01,2013-02-03 23:04:00,
2013-02-03 18:07:00,62.0,21.6,29.85,ESE,112,0.0,0.0,21,0.00,,---,0.00,VWS V14.01,2013-02-03 23:07:00,
2013-02-03 18:11:00,62.0,21.6,29.85,ESE,112,0.0,0.0,21,0.00,,---,0.00,VWS V14.01,2013-02-03 23:11:00,
2013-02-03 18:12:00,62.0,21.6,29.85,ESE,112,0.0,0.0,21,0.00,,---,0.00,VWS V14.01,2013-02-03 23:12:00,
2013-02-03 18:13:00,62.0,21.6,29.85,ESE,112,0.0,0.0,21,0.00,,---,0.00,VWS V14.01,2013-02-03 23:13:00,
2013-02-03 18:14:00,62.0,21.6,29.85,ESE,112,0.0,0.0,21,0.00,,---,0.00,VWS V14.01,2013-02-03 23:14:00,
2013-02-03 18:15:00,62.0,21.6,29.85,ESE,112,0.0,0.0,21,0.00,,---,0.00,VWS V14.01,2013-02-03 23:15:00,
2013-02-03 18:53:00,61.0,20.8,29.86,ESE,112,0.0,0.0,21,0.00,,---,0.00,VWS V14.01,2013-02-03 23:53:00,
2013-02-03 18:57:00,61.0,20.8,29.86,ESE,112,0.0,0.0,21,0.00,,---,0.00,VWS V14.01,2013-02-03 23:57:00,
2013-02-03 18:58:00,61.0,20.8,29.86,ESE,112,0.0,0.0,21,0.00,,---,0.00,VWS V14.01,2013-02-03 23:58:00,
2013-02-03 18:59:00,61.0,20.8,29.86,ESE,112,0.0,0.0,21,0.00,,---,0.00,VWS V14.01,2013-02-03 23:59:00,
2013-02-03 19:00:00,61.0,20.8,29.86,ESE,112,0.0,0.0,21,0.00,,---,0.00,VWS V14.01,2013-02-04 00:00:00,
2013-02-03 19:40:00,61.0,20.8,29.86,ESE,112,0.0,0.0,21,0.00,,---,0.00,VWS V14.01,2013-02-04 00:40:00,
2013-02-03 19:45:00,61.0,20.8,29.86,ESE,112,0.0,0.0,21,0.00,,---,0.00,VWS V14.01,2013-02-04 00:45:00,
2013-02-03 19:46:00,61.0,20.8,29.86,ESE,112,0.0,0.0,21,0.00,,---,0.00,VWS V14.01,2013-02-04 00:46:00,
2013-02-03 19:47:00,61.0,20.8,29.86,ESE,112,0.0,0.0,21,0.00,,---,0.00,VWS V14.01,2013-02-04 00:47:00,
2013-02-03 19:48:00,61.0,20.8,29.86,ESE,112,0.0,0.0,21,0.00,,---,0.00,VWS V14.01,2013-02-04 00:48:00,
2013-02-03 20:54:00,60.0,22.1,29.88,ESE,112,0.0,0.0,23,0.00,,---,0.00,VWS V14.01,2013-02-04 01:54:00,
2013-02-03 20:58:00,60.0,22.1,29.88,ESE,112,0.0,0.0,23,0.00,,---,0.00,VWS V14.01,2013-02-04 01:58:00,
2013-02-03 20:59:00,60.0,22.1,29.88,ESE,112,0.0,0.0,23,0.00,,---,0.00,VWS V14.01,2013-02-04 01:59:00,
2013-02-03 21:00:00,60.0,22.1,29.88,ESE,112,0.0,0.0,23,0.00,,---,0.00,VWS V14.01,2013-02-04 02:00:00,
2013-02-03 21:01:00,60.0,22.1,29.88,ESE,112,0.0,0.0,23,0.00,,---,0.00,VWS V14.01,2013-02-04 02:01:00,
2013-02-03 22:12:00,60.0,23.1,29.87,ESE,112,0.0,0.0,24,0.00,,---,0.00,VWS V14.01,2013-02-04 03:12:00,
2013-02-03 22:16:00,60.0,23.1,29.87,ESE,112,0.0,0.0,24,0.00,,---,0.00,VWS V14.01,2013-02-04 03:16:00,
2013-02-03 22:17:00,60.0,23.1,29.87,ESE,112,0.0,0.0,24,0.00,,---,0.00,VWS V14.01,2013-02-04 03:17:00,
2013-02-03 22:18:00,60.0,23.1,29.87,ESE,112,0.0,0.0,24,0.00,,---,0.00,VWS V14.01,2013-02-04 03:18:00,
2013-02-03 22:19:00,60.0,23.1,29.87,ESE,112,0.0,0.0,24,0.00,,---,0.00,VWS V14.01,2013-02-04 03:19:00,
2013-02-03 22:20:00,60.0,23.1,29.87,ESE,112,0.0,0.0,24,0.00,,---,0.00,VWS V14.01,2013-02-04 03:20:00,
2013-02-03 23:41:00,61.0,24.0,29.86,ESE,112,0.0,0.0,24,0.00,,---,0.00,VWS V14.01,2013-02-04 04:41:00,
2013-02-03 23:46:00,61.0,24.0,29.86,ESE,112,0.0,0.0,24,0.00,,---,0.00,VWS V14.01,2013-02-04 04:46:00,
2013-02-03 23:47:00,61.0,24.0,29.86,ESE,112,0.0,0.0,24,0.00,,---,0.00,VWS V14.01,2013-02-04 04:47:00,
2013-02-03 23:48:00,61.0,24.0,29.86,ESE,112,0.0,0.0,24,0.00,,---,0.00,VWS V14.01,2013-02-04 04:48:00,
2013-02-03 23:49:00,61.0,24.0,29.86,ESE,112,0.0,0.0,24,0.00,,---,0.00,VWS V14.01,2013-02-04 04:49:00,